Location: Friedrichshafen
(47.6598°N, 9.4819°E)
Time: 08:02:29
(UTC+02:00)

Envisat - Visible Passes

Search period start: 16 August 2018 00:00
Search period end: 26 August 2018 00:00
Orbit: 764 x 766 km, 98.2° (Epoch: 15 August)

Date Brightness Start Highest point End Pass type
(mag) Time Alt. Az. Time Alt. Az. Time Alt. Az.
16 Aug 6.0 22:11:33 10° W 22:12:47 11° W 22:14:01 10° WNW visible
17 Aug 5.4 21:31:34 10° SW 21:35:33 23° W 21:39:35 10° NW visible
18 Aug 4.2 20:53:41 10° S 20:58:34 47° W 21:03:29 10° NNW visible
19 Aug 5.8 21:58:54 10° WSW 22:01:27 14° W 22:04:00 10° WNW visible
20 Aug 5.1 21:19:56 10° SSW 21:24:18 28° W 21:28:40 10° NW visible
22 Aug 5.7 21:46:50 10° SW 21:50:08 17° W 21:53:27 10° NW visible
23 Aug 4.7 21:08:25 10° SSW 21:13:03 35° W 21:17:42 10° NNW visible
25 Aug 5.5 21:35:01 10° SW 21:38:50 21° W 21:42:41 10° NW visible
